Precipitable_Water
0.36 0.28 0.24 0.26 0.27 0.27 0.26 0.24 0.23 0.26 0.28 0.26 0.23 0.23 0.24 0.27 0.28 0.27 0.29 0.30 0.30 0.29 0.30 0.30 0.28 0.27 0.27 0.28 0.30 0.30 0.30 0.33 0.36 0.37 0.37 0.38 0.38 0.41 0.41 0.39 0.37 0.38 0.37 0.37
0.34 0.27 0.31 0.32 0.31 0.29 0.27 0.25 0.24 0.26 0.27 0.25 0.23 0.22 0.25 0.27 0.28 0.29 0.30 0.30 0.31 0.31 0.29 0.30 0.29 0.28 0.27 0.27 0.29 0.30 0.31 0.33 0.35 0.36 0.37 0.39 0.41 0.42 0.43 0.42 0.41 0.40 0.38 0.38
0.34 0.36 0.39 0.35 0.32 0.30 0.30 0.27 0.25 0.23 0.27 0.28 0.24 0.19 0.23 0.26 0.29 0.30 0.31 0.31 0.30 0.28 0.29 0.31 0.31 0.30 0.30 0.29 0.30 0.31 0.32 0.33 0.36 0.38 0.39 0.40 0.42 0.42 0.42 0.42 0.39 0.38 0.38 0.37
0.36 0.41 0.37 0.35 0.32 0.33 0.26 0.33 0.29 0.27 0.25 0.19 0.27 0.13 0.19 0.23 0.25 0.26 0.27 0.28 0.27 0.29 0.32 0.33 0.34 0.34 0.34 0.33 0.34 0.34 0.35 0.36 0.37 0.38 0.38 0.37 0.36 0.35 0.38 0.39 0.41 0.41 0.41 0.39
0.35 0.36 0.34 0.32 0.33 0.35 0.29 0.34 0.31 0.29 0.26 0.24 0.23 0.20 0.18 0.23 0.21 0.23 0.25 0.25 0.29 0.32 0.32 0.33 0.34 0.34 0.35 0.36 0.37 0.39 0.36 0.36 0.37 0.37 0.37 0.35 0.35 0.36 0.38 0.40 0.40 0.41 0.41 0.41
0.38 0.43 0.40 0.40 0.43 0.42 0.41 0.36 0.34 0.33 0.29 0.20 0.24 0.24 0.14 0.20 0.22 0.23 0.26 0.30 0.31 0.33 0.34 0.33 0.34 0.36 0.36 0.37 0.38 0.38 0.38 0.37 0.39 0.40 0.39 0.38 0.37 0.37 0.38 0.39 0.40 0.40 0.41 0.42
0.42 0.43 0.48 0.51 0.45 0.45 0.42 0.36 0.27 0.24 0.24 0.21 0.27 0.24 0.20 0.25 0.28 0.29 0.31 0.33 0.35 0.36 0.35 0.33 0.34 0.36 0.37 0.38 0.38 0.38 0.36 0.36 0.39 0.40 0.40 0.40 0.40 0.40 0.40 0.41 0.41 0.41 0.41 0.42
0.36 0.30 0.41 0.43 0.39 0.37 0.37 0.36 0.30 0.25 0.24 0.26 0.33 0.25 0.23 0.34 0.36 0.35 0.33 0.34 0.35 0.36 0.37 0.37 0.37 0.36 0.37 0.38 0.37 0.37 0.36 0.36 0.38 0.39 0.39 0.41 0.42 0.42 0.41 0.42 0.42 0.42 0.44 0.46
0.34 0.28 0.36 0.38 0.41 0.39 0.34 0.31 0.37 0.31 0.33 0.29 0.29 0.30 0.32 0.31 0.30 0.30 0.30 0.33 0.36 0.39 0.41 0.41 0.41 0.40 0.37 0.38 0.40 0.39 0.39 0.37 0.38 0.39 0.39 0.39 0.42 0.43 0.44 0.45 0.46 0.46 0.47 0.47
0.42 0.32 0.34 0.38 0.40 0.38 0.35 0.35 0.26 0.29 0.23 0.22 0.26 0.26 0.25 0.25 0.24 0.30 0.33 0.38 0.42 0.43 0.42 0.41 0.42 0.42 0.41 0.41 0.42 0.42 0.42 0.42 0.42 0.41 0.41 0.40 0.42 0.43 0.44 0.46 0.46 0.46 0.47 0.45
0.42 0.38 0.33 0.40 0.33 0.31 0.34 0.32 0.34 0.35 0.32 0.25 0.22 0.24 0.29 0.26 0.29 0.31 0.37 0.43 0.44 0.43 0.44 0.46 0.46 0.47 0.46 0.47 0.46 0.46 0.44 0.44 0.45 0.45 0.44 0.43 0.43 0.42 0.44 0.44 0.46 0.47 0.48 0.45
0.46 0.40 0.31 0.30 0.42 0.44 0.40 0.38 0.37 0.29 0.24 0.27 0.27 0.28 0.38 0.37 0.36 0.38 0.39 0.43 0.45 0.47 0.47 0.48 0.48 0.49 0.48 0.48 0.52 0.52 0.52 0.49 0.50 0.51 0.47 0.46 0.47 0.49 0.47 0.46 0.46 0.48 0.47 0.46
0.48 0.40 0.30 0.29 0.30 0.39 0.39 0.40 0.41 0.42 0.41 0.31 0.27 0.29 0.41 0.43 0.40 0.38 0.36 0.36 0.38 0.42 0.46 0.50 0.51 0.50 0.50 0.50 0.49 0.52 0.52 0.50 0.50 0.53 0.55 0.55 0.54 0.51 0.50 0.49 0.48 0.47 0.48 0.48
0.50 0.39 0.30 0.21 0.24 0.27 0.25 0.31 0.39 0.38 0.29 0.29 0.29 0.32 0.38 0.39 0.40 0.41 0.38 0.35 0.38 0.38 0.39 0.42 0.48 0.50 0.53 0.52 0.51 0.49 0.50 0.51 0.53 0.51 0.52 0.54 0.56 0.55 0.52 0.50 0.49 0.47 0.48 0.48
0.39 0.28 0.32 0.30 0.33 0.33 0.31 0.29 0.27 0.24 0.27 0.24 0.25 0.26 0.31 0.28 0.28 0.34 0.38 0.36 0.35 0.37 0.38 0.40 0.43 0.48 0.50 0.50 0.51 0.51 0.51 0.53 0.52 0.52 0.52 0.54 0.58 0.58 0.57 0.53 0.52 0.49 0.48 0.49
0.33 0.22 0.26 0.20 0.22 0.25 0.21 0.22 0.25 0.23 0.19 0.22 0.22 0.19 0.25 0.24 0.22 0.21 0.27 0.35 0.36 0.38 0.39 0.41 0.36 0.41 0.42 0.45 0.50 0.51 0.51 0.51 0.53 0.53 0.52 0.53 0.53 0.53 0.57 0.57 0.54 0.51 0.49 0.48
0.25 0.23 0.18 0.11 0.14 0.16 0.12 0.09 0.12 0.13 0.13 0.14 0.11 0.16 0.20 0.19 0.19 0.20 0.25 0.33 0.30 0.31 0.34 0.39 0.36 0.36 0.36 0.38 0.41 0.43 0.49 0.49 0.45 0.45 0.46 0.47 0.51 0.53 0.52 0.54 0.55 0.55 0.51 0.50
0.20 0.18 0.17 0.12 0.13 0.07 0.09 0.14 0.17 0.16 0.19 0.21 0.21 0.23 0.21 0.20 0.20 0.20 0.24 0.20 0.20 0.21 0.25 0.27 0.28 0.30 0.32 0.34 0.34 0.33 0.36 0.37 0.40 0.41 0.44 0.43 0.42 0.46 0.49 0.50 0.50 0.51 0.54 0.53
0.18 0.15 0.12 0.10 0.08 0.09 0.09 0.13 0.13 0.14 0.16 0.21 0.19 0.19 0.20 0.20 0.20 0.18 0.19 0.19 0.19 0.20 0.24 0.21 0.19 0.22 0.24 0.25 0.29 0.30 0.27 0.29 0.32 0.33 0.37 0.41 0.42 0.41 0.46 0.45 0.45 0.47 0.49 0.50
0.14 0.17 0.14 0.12 0.09 0.07 0.12 0.15 0.17 0.18 0.10 0.16 0.15 0.14 0.15 0.15 0.10 0.10 0.14 0.15 0.16 0.18 0.19 0.17 0.17 0.18 0.18 0.17 0.20 0.20 0.21 0.23 0.25 0.29 0.30 0.35 0.38 0.43 0.42 0.44 0.46 0.47 0.44 0.47
0.07 0.10 0.11 0.11 0.11 0.11 0.15 0.15 0.14 0.08 0.09 0.11 0.12 0.12 0.14 0.12 0.12 0.12 0.13 0.14 0.15 0.15 0.14 0.14 0.13 0.11 0.12 0.16 0.15 0.14 0.18 0.18 0.20 0.22 0.27 0.29 0.33 0.38 0.42 0.45 0.46 0.49 0.49 0.46
0.09 0.08 0.08 0.09 0.08 0.06 0.14 0.13 0.10 0.11 0.12 0.12 0.12 0.12 0.14 0.15 0.14 0.14 0.14 0.13 0.14 0.12 0.11 0.10 0.09 0.09 0.09 0.11 0.11 0.12 0.13 0.16 0.17 0.16 0.17 0.21 0.27 0.32 0.35 0.40 0.45 0.47 0.47 0.50
0.10 0.11 0.10 0.10 0.08 0.11 0.13 0.12 0.12 0.13 0.12 0.12 0.13 0.14 0.15 0.15 0.14 0.15 0.14 0.13 0.13 0.12 0.11 0.11 0.11 0.10 0.10 0.10 0.10 0.09 0.10 0.11 0.12 0.12 0.12 0.14 0.17 0.23 0.28 0.33 0.39 0.44 0.46 0.47
0.13 0.15 0.12 0.12 0.11 0.13 0.13 0.14 0.15 0.15 0.14 0.14 0.15 0.16 0.17 0.16 0.16 0.15 0.14 0.13 0.12 0.12 0.12 0.12 0.11 0.10 0.09 0.10 0.10 0.10 0.10 0.10 0.09 0.09 0.10 0.10 0.13 0.15 0.20 0.27 0.33 0.38 0.41 0.44
0.14 0.15 0.13 0.13 0.13 0.15 0.14 0.15 0.16 0.16 0.16 0.16 0.17 0.17 0.17 0.16 0.15 0.14 0.13 0.13 0.12 0.12 0.12 0.12 0.11 0.11 0.10 0.10 0.09 0.09 0.09 0.09 0.08 0.07 0.08 0.09 0.09 0.12 0.15 0.19 0.22 0.28 0.36 0.42
0.16 0.13 0.13 0.11 0.13 0.14 0.13 0.14 0.16 0.16 0.17 0.18 0.17 0.16 0.16 0.15 0.14 0.14 0.12 0.11 0.11 0.11 0.11 0.11 0.10 0.09 0.08 0.08 0.07 0.08 0.08 0.08 0.07 0.07 0.07 0.07 0.08 0.10 0.12 0.16 0.18 0.23 0.31 0.37
Wind_Speed
26 26 27 30 29 30 28 30 33 31 31 32 39 42 38 36 34 36 35 34 33 31 32 32 31 31 32 32 31 32 33 34 34 34 34 35 36 36 37 38 38 37 36 36
26 30 32 28 28 30 30 34 36 36 34 32 36 41 39 37 34 33 31 30 30 29 27 25 24 25 26 29 31 32 33 33 35 36 36 34 35 35 36 37 38 38 37 37
31 31 26 27 26 28 27 29 34 35 32 32 35 37 29 27 26 28 28 29 23 21 23 24 23 24 25 26 27 30 32 33 34 33 33 33 32 32 34 35 37 38 38 38
27 27 27 24 27 26 34 29 32 32 29 29 26 34 26 28 27 26 24 21 19 21 23 26 27 27 27 28 27 28 28 30 31 32 33 34 34 34 35 36 36 37 38 38
29 25 24 25 27 24 31 27 29 27 28 29 27 27 27 25 26 23 20 18 23 31 28 32 30 30 30 28 28 28 29 29 31 32 33 34 35 35 34 35 36 37 38 39
32 29 28 29 30 29 28 27 27 27 26 29 28 26 41 23 22 19 26 36 30 33 36 34 30 28 28 29 29 29 28 28 29 31 33 35 35 34 34 35 36 37 38 38
28 30 32 31 31 29 27 25 27 26 25 30 24 26 38 34 38 37 37 40 38 34 30 30 30 30 30 29 28 27 28 28 29 31 33 34 35 35 35 35 35 36 37 38
31 38 29 29 30 30 29 27 26 27 29 35 29 35 42 38 41 44 41 38 31 27 27 29 30 31 29 26 24 26 28 29 30 31 32 32 33 33 33 33 34 35 36 38
32 39 34 33 31 30 30 30 32 31 33 32 39 43 44 45 37 33 30 28 30 32 33 35 33 29 27 24 24 25 26 28 30 31 31 32 32 32 33 34 36 37 38 38
36 40 39 37 35 37 34 34 32 30 29 33 33 40 40 46 48 39 37 37 39 37 36 34 32 31 29 27 25 25 26 29 30 29 30 32 34 35 36 37 38 40 41 42
35 35 38 35 38 38 35 35 35 34 33 38 43 41 42 47 44 34 35 36 36 34 33 35 34 32 31 31 30 30 31 31 32 33 35 37 38 39 40 41 42 43 44 45
38 38 40 46 38 39 40 42 39 38 39 40 40 39 38 37 38 35 35 37 38 38 39 38 37 35 33 33 32 33 32 34 35 37 38 40 41 42 43 45 45 46 47 48
31 31 32 35 36 33 32 34 34 37 34 36 36 34 35 34 34 38 38 40 40 40 40 40 40 38 38 37 37 38 39 38 38 40 43 44 45 46 47 48 49 49 50 50
34 35 38 41 41 40 40 38 37 38 37 40 41 46 41 40 40 41 41 41 43 44 43 43 43 43 43 42 41 42 43 43 45 43 44 46 47 49 50 50 51 51 51 51
36 44 44 46 43 38 37 40 43 45 44 40 46 47 38 40 41 41 40 42 42 42 43 44 45 46 47 48 47 45 46 46 47 46 46 46 49 50 49 50 50 50 51 52
33 34 35 40 43 40 45 45 45 47 48 45 45 41 38 39 41 42 42 41 40 42 43 43 45 46 48 49 50 50 48 48 49 49 49 49 49 49 51 52 52 53 54 55
37 36 38 45 42 39 43 47 47 47 46 40 41 36 38 39 40 40 40 38 40 42 43 44 44 44 45 46 47 48 50 49 49 50 50 50 50 51 51 53 54 55 56 55
42 41 39 43 39 45 42 35 33 31 32 33 34 36 38 40 41 41 37 41 44 45 47 46 45 45 45 47 47 48 49 51 50 49 51 50 49 50 50 51 54 56 56 57
45 42 38 36 37 42 41 36 34 35 36 36 37 40 40 41 41 38 41 44 46 48 48 49 50 50 49 49 50 51 52 51 50 51 52 52 52 51 50 50 52 55 57 58
33 38 36 32 34 34 35 36 35 35 39 38 39 42 42 42 44 47 48 49 50 50 50 51 51 51 52 54 55 55 55 53 53 53 53 53 52 52 52 50 49 50 52 55
34 32 35 37 36 38 36 37 35 31 34 38 38 41 42 42 43 49 50 50 50 51 53 53 54 56 57 57 56 57 56 55 54 55 55 54 54 53 51 49 46 45 45 46
31 30 32 29 30 35 32 32 30 35 40 40 42 44 43 45 48 49 50 51 51 52 53 54 54 56 57 58 59 60 60 59 59 59 59 58 56 53 51 49 48 46 44 44
31 31 29 30 33 36 37 40 41 38 40 42 42 43 43 45 49 49 50 52 52 53 54 54 55 57 58 58 59 62 63 64 65 64 63 61 57 55 53 51 49 46 45 43
34 33 36 38 39 39 39 40 38 40 41 42 42 42 43 46 48 49 51 52 54 55 56 56 57 59 61 61 62 63 65 66 67 66 64 62 62 59 57 53 52 51 48 46
32 30 32 37 40 38 40 40 39 40 40 39 40 41 43 45 48 49 52 54 56 57 57 58 60 62 65 65 66 66 66 66 67 67 68 67 64 63 61 59 57 56 54 52
32 36 32 35 38 37 39 39 35 36 37 39 40 42 44 46 49 51 53 54 55 57 59 61 64 66 67 68 68 67 66 66 66 66 64 64 63 62 63 61 59 58 57 55
Wind_Direction
273 271 269 268 267 277 278 279 279 284 286 286 283 284 285 286 287 287 288 288 288 287 289 287 282 277 273 268 264 260 257 255 253 252 251 252 251 250 249 249 247 246 245 244
276 269 271 278 276 274 277 280 280 284 284 283 286 283 285 285 284 284 287 288 291 293 293 293 289 281 276 271 266 261 258 257 255 254 252 253 251 251 250 248 246 245 244 243
265 273 276 273 274 275 275 275 280 281 289 284 290 286 283 288 288 286 286 288 294 290 293 298 297 288 283 278 271 264 259 257 255 253 250 252 251 252 249 248 246 245 243 242
271 278 272 274 272 271 275 274 277 282 289 285 290 287 281 288 290 291 286 288 289 295 299 300 297 290 284 279 273 269 263 257 253 250 250 249 251 251 250 248 247 244 242 242
275 276 275 272 273 272 275 276 276 277 275 283 280 283 287 293 290 288 286 288 296 300 300 300 297 293 285 279 275 269 263 258 255 252 250 251 252 251 250 248 246 244 243 241
273 275 271 273 275 272 279 278 279 278 274 274 269 271 284 280 282 282 293 298 300 300 302 302 300 298 291 283 277 270 263 259 256 255 253 252 252 251 250 248 246 244 242 241
275 272 275 276 277 276 272 275 277 276 271 268 277 269 268 277 282 285 290 293 295 298 301 304 304 304 300 286 275 269 262 261 260 257 255 253 252 249 247 247 245 241 241 241
276 282 272 273 271 270 267 263 264 268 273 276 272 267 270 276 281 285 289 288 289 292 298 305 306 306 303 291 278 267 261 261 260 259 257 254 251 249 247 245 244 242 243 243
275 275 277 274 274 272 272 266 273 275 273 273 271 273 277 280 282 288 288 288 293 293 292 296 298 298 300 294 282 274 267 264 261 260 257 253 249 248 249 248 246 245 246 245
277 275 273 275 272 270 269 275 274 274 275 272 270 271 275 281 282 286 287 288 289 287 289 290 294 294 290 289 284 278 273 272 269 262 256 253 252 253 254 253 251 249 247 247
275 274 274 273 269 268 273 272 271 274 268 274 276 274 276 278 284 289 289 287 290 293 292 291 289 290 288 285 282 280 276 275 272 267 262 260 259 258 258 258 257 254 251 248
272 276 272 271 270 272 272 272 271 269 275 272 275 275 279 283 287 293 292 291 289 286 288 288 285 283 283 284 280 280 281 279 275 269 266 263 262 262 261 260 259 255 252 250
279 272 277 279 280 278 273 275 275 275 274 270 274 277 280 288 287 289 288 288 286 285 285 284 283 281 280 280 280 277 279 282 279 275 268 267 265 265 264 263 260 257 254 252
272 269 270 274 275 277 276 274 274 274 273 278 274 281 282 287 288 287 285 286 287 286 284 282 281 281 278 279 279 279 278 279 279 279 274 268 267 267 266 264 261 257 254 253
271 272 273 273 276 278 277 276 275 271 273 274 280 280 283 285 287 287 286 287 287 286 285 284 282 280 280 279 278 279 279 279 279 280 278 277 272 270 268 265 261 256 254 254
271 273 278 277 277 277 277 274 272 274 276 275 274 276 280 282 284 284 283 283 286 288 284 285 285 283 283 282 279 278 278 280 280 279 279 278 277 273 267 265 261 258 258 257
271 273 274 274 277 278 274 272 273 274 275 276 274 276 279 282 284 287 284 281 285 286 285 286 286 283 284 284 283 281 281 281 281 280 279 280 278 277 273 268 263 260 258 257
270 271 272 275 279 272 276 279 279 277 276 277 277 276 278 280 283 285 279 284 284 284 284 284 285 283 282 285 283 283 283 284 282 280 279 280 280 279 277 273 266 262 259 258
263 266 271 270 268 275 276 278 278 278 276 277 278 279 280 281 282 280 285 286 286 286 284 283 282 280 282 283 284 284 286 284 282 283 281 279 279 279 278 276 272 266 261 258
269 261 262 269 270 271 276 278 279 279 278 276 279 281 280 283 283 284 287 287 286 285 285 284 283 281 281 282 283 283 283 282 281 282 281 280 279 278 277 275 273 269 263 259
270 270 264 268 271 275 274 278 281 279 278 281 283 283 280 282 283 288 289 288 287 286 286 285 283 281 281 282 283 282 280 280 281 281 280 280 279 277 276 273 270 268 266 261
266 267 269 271 274 276 275 282 276 278 283 283 285 283 280 283 286 289 290 290 289 289 289 287 285 284 283 283 282 280 280 279 278 279 279 279 277 275 273 270 268 265 266 262
270 267 270 266 270 276 279 278 281 282 284 283 284 284 285 286 288 289 290 291 290 291 290 289 288 287 285 284 283 280 280 279 278 277 276 275 274 271 269 266 264 263 263 261
271 271 272 277 276 277 279 280 281 284 284 285 285 287 287 288 290 291 291 292 292 292 291 291 289 288 287 286 285 283 282 280 277 276 274 272 270 267 265 263 260 260 260 260
272 274 276 274 278 281 281 281 283 284 286 287 288 289 290 292 292 293 293 293 294 293 292 292 291 289 288 288 286 285 283 281 278 276 273 270 269 265 263 260 259 259 258 256
272 272 272 277 281 281 283 286 288 286 288 290 290 291 292 293 294 295 295 295 296 295 294 293 292 291 290 289 287 285 283 281 278 275 273 270 266 263 261 260 258 257 256 255